This demonstration page uses our WeatherBlox Daily Observations layout. Learn more.

Left ArrowRight Arrow

Hourly Observations for April 24, 2017

Temp ( °F °C ) Dew Point ( °F °C ) Humidity (%) Winds ( mph kmh ) Pressure ( in mb ) Visibility ( mi km ) Precip ( " mm )
12:53 am 00:53 Cloudy 57 13.9 49 9.4 74 74 Calm 29.88 1012 10 16 0.00 0.00
1:53 am 01:53 Cloudy 57 13.9 44 6.7 62 62 SW 5 7 29.88 1012 10 16 0.00 0.00
2:53 am 02:53 Cloudy 55 12.8 51 10.6 87 87 E 5 7 29.88 1012 10 16 0.00 0.00
3:53 am 03:53 Mostly Cloudy 54 12.2 49 9.4 83 83 ESE 6 9 29.88 1012 10 16 0.00 0.00
4:53 am 04:53 Cloudy 54 12.2 48 8.9 80 80 ESE 5 7 29.88 1012 10 16 0.00 0.00
5:53 am 05:53 Cloudy 54 12.2 50 10 87 87 S 9 15 29.89 1012 10 16 0.00 0.00
6:53 am 06:53 Cloudy 54 12.2 49 9.4 83 83 S 15 24 29.90 1013 10 16 0.00 0.00
7:53 am 07:53 Cloudy 54 12.2 49 9.4 83 83 S 17 28 29.92 1013 10 16 0.00 0.00
8:53 am 08:53 Cloudy 54 12.2 48 8.9 80 80 S 17 28 29.92 1013 10 16 0.00 0.00
9:53 am 09:53 Cloudy 56 13.3 49 9.4 77 77 S 16 26 29.93 1014 10 16 0.00 0.00
10:53 am 10:53 Cloudy 56 13.3 50 10 81 81 S 15 24 29.94 1014 10 16 0.00 0.03
11:53 am 11:53 Cloudy with Light Rain 57 13.9 50 10 78 78 S 16 26 29.94 1014 9 14 0.00 0.03
12:33 pm 12:33 Cloudy with Light Rain 56 13.3 49 9.4 77 77 SSE 13 20 29.94 1014 6 10 0.08 2.03
12:53 pm 12:53 Cloudy with Light Rain 57 13.9 50 10 78 78 S 15 24 29.94 1014 10 16 0.09 2.29
1:53 pm 13:53 Cloudy 61 16.1 51 10.6 70 70 S 25 41 29.90 1013 10 16 0.01 0.25
2:53 pm 14:53 Cloudy 60 15.6 51 10.6 72 72 S 5 7 29.91 1013 10 16 0.02 0.51
3:53 pm 15:53 Mostly Cloudy with Light Rain 59 15 54 12.2 83 83 S 9 15 29.90 1013 4 6 0.06 1.52
4:53 pm 16:53 Cloudy 62 16.7 53 11.7 73 73 SSE 15 24 29.87 1012 10 16 0.00 0.03
5:53 pm 17:53 Mostly Sunny 64 17.8 53 11.7 68 68 WSW 6 9 29.89 1012 10 16 0.00 0.00
6:53 pm 18:53 Mostly Cloudy 64 17.8 44 6.7 48 48 undefined N/A 29.89 1012 10 16 0.00 0.00
7:53 pm 19:53 Sunny 59 15 43 6.1 56 56 W 6 9 29.92 1013 10 16 0.00 0.00
8:53 pm 20:53 Clear 57 13.9 42 5.6 58 58 VRB 3 6 29.93 1013 10 16 0.00 0.00
9:53 pm 21:53 Clear 55 12.8 42 5.6 62 62 Calm 29.95 1014 10 16 0.00 0.00
10:53 pm 22:53 Clear 55 12.8 40 4.4 57 57 W 5 7 29.97 1015 10 16 0.00 0.00
11:53 pm 23:53 Clear 49 9.4 43 6.1 80 80 Calm 29.97 1015 10 16 0.00 0.00

Powered by AerisWeather